Date,TemperatureHighF,TemperatureAvgF,TemperatureLowF,DewpointHighF,DewpointAvgF,DewpointLowF,HumidityHigh,HumidityAvg,HumidityLow,PressureMaxIn,PressureMinIn,WindSpeedMaxMPH,WindSpeedAvgMPH,GustSpeedMaxMPH,PrecipitationSumIn
2013-1-1,23.7,21.1,19.9,18.9,16.1,13.3,89,81,71,29.26,29.13,8,3,13,0.00
2013-1-2,24.9,23.5,20.4,22.1,19.0,14.6,89,83,77,29.22,29.12,5,2,7,0.00
2013-1-3,29.2,27.0,25.0,25.0,22.9,21.7,91,84,77,29.18,29.08,9,4,13,0.00
2013-1-4,33.6,27.7,24.9,28.6,23.3,20.9,92,83,76,29.21,29.01,12,7,24,0.00
2013-1-5,34.7,28.7,22.4,28.5,24.4,19.5,94,84,77,29.30,29.15,4,1,5,0.02
2013-1-6,35.1,31.2,26.8,30.5,26.0,20.2,89,81,74,29.36,28.92,9,3,6,0.00
2013-1-7,40.0,32.7,23.4,30.4,25.5,18.2,85,75,58,29.37,29.03,11,5,32,0.13
2013-1-8,40.9,35.3,30.3,33.7,30.4,27.4,92,82,72,29.25,29.07,8,2,15,0.19
2013-1-9,39.7,37.0,34.0,33.8,30.7,27.7,83,78,69,29.52,28.92,11,6,20,0.26
2013-1-10,39.5,34.2,26.1,30.7,27.8,23.3,91,78,68,29.63,29.19,4,1,6,0.01
2013-1-11,42.8,38.7,34.6,41.7,37.2,30.3,96,95,76,29.19,28.77,6,2,9,0.27
2013-1-12,51.0,42.7,33.3,45.3,37.7,27.9,96,83,65,29.08,28.73,13,5,22,0.01
2013-1-13,33.0,30.1,25.2,29.0,26.9,20.2,91,88,80,29.11,28.95,7,2,11,0.01
2013-1-14,25.1,22.1,19.9,21.2,16.2,13.5,90,78,68,29.47,29.12,8,4,16,0.00
2013-1-15,28.8,22.9,15.3,19.8,15.9,11.4,85,74,63,29.49,29.17,9,3,13,0.00
2013-1-16,30.9,26.5,22.1,28.2,22.1,16.7,93,83,69,29.17,28.77,11,4,15,0.00
2013-1-17,25.1,17.1,13.9,17.7,9.4,3.3,88,71,57,29.43,29.10,7,4,15,0.00
2013-1-18,39.4,22.9,13.4,34.2,17.5,4.0,90,80,64,29.47,28.85,7,3,16,0.09
2013-1-19,39.8,35.1,27.9,35.8,32.1,22.6,95,89,73,28.94,28.58,13,3,24,0.32
2013-1-20,27.1,15.7,13.2,22.4,9.9,5.0,89,78,66,29.25,28.65,11,5,15,0.00
2013-1-21,13.3,7.4,0.5,9.5,2.5,-5.2,88,80,71,29.20,29.07,6,4,11,0.00
2013-1-22,8.5,4.0,1.0,3.9,-0.2,-3.2,86,82,73,29.33,29.18,6,3,8,0.00
2013-1-23,15.0,11.3,8.0,11.7,7.5,3.2,92,84,76,29.32,29.14,7,3,10,0.00
2013-1-24,14.1,10.7,5.0,11.2,5.6,-0.1,90,80,69,29.73,29.32,2,1,4,0.00
2013-1-25,20.5,16.6,11.6,18.0,13.5,6.3,91,87,77,29.54,29.06,4,1,6,0.00
2013-1-26,27.2,22.7,18.2,24.8,19.9,14.5,93,89,80,29.49,29.15,1,0,3,0.00
2013-1-27,29.6,27.6,23.4,27.4,25.6,21.2,95,92,89,29.50,29.14,3,2,5,0.00
2013-1-28,33.0,31.3,27.8,32.0,30.1,26.6,96,95,94,29.14,28.93,3,1,4,0.00
2013-1-29,48.7,38.1,31.6,47.9,37.0,30.1,97,96,94,29.10,28.60,5,2,7,1.43
2013-1-30,35.2,30.6,20.7,34.2,29.1,18.0,100,94,89,28.62,28.28,6,4,8,0.15
2013-1-31,20.7,17.9,16.3,18.1,13.9,10.4,92,84,77,28.99,28.40,7,4,11,0.00
2013-2-1,16.5,13.8,9.9,11.9,9.4,6.3,88,82,75,29.24,28.99,6,4,11,0.00
2013-2-2,18.8,12.8,9.2,12.9,8.4,5.6,88,82,68,29.20,29.10,4,1,7,0.00
2013-2-3,17.7,14.6,12.5,12.9,9.2,5.4,89,79,67,29.11,28.94,5,2,8,0.00
2013-2-4,18.6,14.1,6.2,10.4,7.0,2.0,85,73,63,29.09,29.03,5,2,7,0.00
2013-2-5,23.0,16.4,6.8,20.5,12.9,3.3,91,85,78,29.12,28.82,6,2,8,0.00
2013-2-6,27.0,21.8,15.7,24.2,18.4,12.6,93,87,79,29.34,29.12,4,1,7,0.00
2013-2-7,28.7,27.0,22.7,27.1,25.4,21.0,95,94,93,29.30,29.17,2,0,4,0.00
2013-2-8,23.9,20.3,8.9,21.8,17.8,6.1,93,90,85,29.50,29.19,4,1,7,0.00
2013-2-9,29.6,17.3,5.0,24.0,13.7,2.0,92,86,77,29.51,29.30,3,1,5,0.01
2013-2-10,36.3,28.5,20.9,35.0,25.6,18.2,95,89,82,29.30,28.62,4,2,7,0.00
2013-2-11,39.1,34.2,28.3,38.0,32.0,21.4,96,92,75,28.93,28.50,8,4,14,0.30
2013-2-12,28.3,26.6,25.1,24.0,21.7,19.9,87,82,75,29.09,28.93,7,3,11,0.00
2013-2-13,38.6,31.8,23.8,32.0,27.5,20.8,92,84,72,28.96,28.80,5,2,13,0.17
2013-2-14,33.8,30.7,23.6,32.5,28.9,19.6,95,93,84,29.00,28.71,8,2,13,0.07
2013-2-15,23.6,21.0,16.6,21.0,16.9,12.1,92,84,76,29.24,29.00,5,3,7,0.00
2013-2-16,20.4,16.4,12.7,14.8,10.9,6.2,90,79,62,29.26,29.16,5,1,7,0.01
2013-2-17,20.9,15.5,9.1,13.7,10.0,3.5,92,79,67,29.29,29.20,5,1,8,0.00
2013-2-18,39.4,29.4,18.5,34.4,22.8,13.5,95,76,64,29.20,28.52,5,3,9,0.31
2013-2-19,37.8,25.1,15.1,36.7,22.9,11.9,96,91,86,29.01,28.35,10,6,16,0.19
2013-2-20,21.7,17.6,14.9,17.8,13.9,10.8,90,85,80,29.41,29.01,8,6,13,0.00
2013-2-21,21.6,19.3,17.6,19.5,15.3,13.7,96,84,77,29.53,29.39,5,2,8,0.04
2013-2-22,28.5,25.8,18.2,26.4,23.3,13.8,99,90,82,29.40,28.93,5,2,9,0.00
2013-2-23,30.5,28.1,26.0,27.5,25.6,24.0,95,91,83,28.97,28.88,6,1,8,0.01
2013-2-24,35.4,30.4,25.3,28.8,27.0,23.3,94,87,75,29.25,28.94,4,1,5,0.02
2013-2-25,37.0,32.0,27.0,30.7,27.7,24.1,95,84,70,29.31,29.24,4,0,7,0.10
2013-2-26,36.7,32.2,28.8,29.7,26.9,23.2,89,81,71,29.28,28.88,4,2,14,0.09
2013-2-27,34.6,32.5,31.1,31.4,30.0,27.8,95,90,85,28.88,28.78,3,2,7,0.05
2013-2-28,32.4,29.8,24.4,30.9,25.3,17.9,94,83,70,29.22,28.84,6,4,10,0.01
2013-3-1,26.0,21.8,18.8,19.0,16.3,13.6,85,79,72,29.34,29.22,5,3,8,0.00
2013-3-2,25.3,20.9,17.0,19.3,15.9,12.5,92,81,75,29.31,29.23,5,2,8,0.00
2013-3-3,26.1,18.9,12.2,18.3,14.0,8.9,92,81,72,29.23,29.18,4,1,6,0.00
2013-3-4,29.5,20.9,12.2,19.9,15.0,9.6,90,78,54,29.29,29.22,3,1,5,0.01
2013-3-5,33.0,24.7,14.9,24.9,19.2,10.6,87,80,65,29.28,29.11,3,1,8,0.00
2013-3-6,37.7,31.3,26.3,30.1,27.3,21.8,93,85,73,29.40,29.19,4,2,8,0.01
2013-3-7,30.7,27.0,25.3,24.5,21.2,18.6,89,79,65,29.56,29.39,4,1,7,0.02
2013-3-8,37.1,28.1,17.4,27.1,22.8,14.7,93,81,61,29.62,29.48,4,1,6,0.00
2013-3-9,41.4,32.5,21.7,33.2,26.3,19.5,94,79,55,29.48,29.07,4,1,6,0.27
2013-3-10,39.5,36.2,34.5,38.5,34.9,33.2,96,95,92,29.07,28.91,4,1,5,0.60
2013-3-11,44.0,37.7,31.3,42.1,36.5,30.0,96,95,90,28.91,28.58,4,1,6,0.24
2013-3-12,31.1,27.4,23.0,29.6,24.5,18.6,95,89,78,28.98,28.67,5,2,10,0.01
2013-3-13,29.5,24.8,20.8,20.8,17.9,14.9,91,75,57,29.33,28.98,7,4,12,0.04
2013-3-14,34.9,28.6,20.3,25.1,20.0,16.0,84,70,56,29.36,29.11,6,3,13,0.11
2013-3-15,33.7,30.0,22.9,30.8,23.5,12.0,91,77,62,29.11,28.99,9,5,15,0.02
2013-3-16,25.7,21.9,18.6,17.8,15.5,12.1,90,76,62,29.16,29.02,4,1,6,0.04
2013-3-17,26.9,21.2,16.9,20.9,12.1,7.1,89,68,48,29.44,29.15,7,2,12,0.04
2013-3-18,40.0,27.1,17.7,30.1,21.0,11.8,94,78,47,29.30,28.62,5,3,10,0.01
2013-3-19,30.2,25.0,21.4,28.6,22.3,18.0,100,89,73,28.97,28.60,11,6,16,0.00
2013-3-20,25.7,22.8,19.9,19.9,16.9,13.9,90,78,68,29.03,28.96,7,5,15,0.00
2013-3-21,28.6,26.0,22.4,23.9,21.2,18.6,92,82,72,29.09,28.97,7,4,11,0.01
2013-3-22,31.8,28.4,24.4,27.6,23.8,18.9,90,83,76,29.18,29.07,5,2,8,0.01
2013-3-23,34.9,30.5,26.5,28.3,25.2,22.5,89,81,67,29.25,29.18,4,1,5,0.01
2013-3-24,35.4,30.9,28.0,28.2,24.8,22.0,92,78,61,29.22,28.97,4,1,7,0.02
2013-3-25,37.7,32.6,28.0,29.5,26.7,23.5,86,79,62,29.14,28.95,5,3,9,0.02
2013-3-26,40.4,34.8,32.5,32.0,29.5,26.1,91,81,63,29.28,29.14,6,3,8,0.00
2013-3-27,41.8,34.7,30.0,31.3,28.8,26.8,91,79,63,29.35,29.26,6,4,11,0.00
2013-3-28,42.5,34.8,28.3,30.9,26.4,22.8,86,72,53,29.41,29.35,7,2,10,0.00
2013-3-29,45.4,33.3,23.0,26.4,22.5,19.5,93,68,38,29.42,29.36,3,1,5,0.00
2013-3-30,39.9,39.8,39.7,37.9,37.7,37.4,93,92,91,28.95,28.93,2,1,0,0.02
2013-3-31,41.5,38.3,35.7,40.2,36.9,34.4,96,95,93,28.93,28.75,8,3,0,0.09
2013-4-1,27.8,26.5,25.3,21.2,19.5,18.5,78,75,72,29.00,28.92,8,6,0,0.00
2013-4-5,35.8,28.7,27.5,28.3,22.2,20.9,78,76,74,29.34,29.16,3,0,4,0.00
2013-4-6,41.1,33.8,26.5,34.1,27.3,20.8,90,77,67,29.33,28.70,5,2,7,0.05
2013-4-7,46.3,37.8,30.1,44.9,34.0,27.9,95,86,71,29.17,28.58,8,3,11,0.26
2013-4-8,38.2,34.6,29.4,36.8,32.3,27.4,95,91,83,29.16,28.91,4,1,5,0.31
2013-4-9,40.1,36.1,32.6,38.0,34.7,30.7,96,95,89,29.24,29.13,5,1,8,0.40
2013-4-10,38.1,34.6,32.6,34.2,32.2,30.8,96,91,83,29.27,29.17,3,1,5,0.44
2013-4-11,34.9,33.0,30.5,30.9,27.7,25.6,94,81,70,29.22,28.90,5,2,10,0.33
2013-4-12,35.1,32.2,29.8,33.6,30.5,27.7,100,93,91,28.91,28.73,4,0,5,0.21
2013-4-13,36.1,33.2,31.3,32.9,30.4,28.6,100,90,75,29.05,28.83,9,3,17,0.33
2013-4-14,41.0,34.7,25.2,32.3,28.8,23.5,94,80,59,29.20,29.01,4,1,5,0.15
2013-4-15,51.9,43.9,36.6,49.4,40.5,31.4,96,88,79,29.02,28.87,8,3,9,0.11
2013-4-16,47.6,40.8,35.4,36.9,32.2,30.2,83,72,56,29.45,29.02,8,4,14,0.00
2013-4-17,45.9,37.5,28.3,35.8,31.8,26.2,94,81,62,29.52,29.19,3,1,5,0.02
2013-4-18,48.3,41.5,35.8,46.5,40.1,34.0,96,95,91,29.19,28.49,3,1,5,0.45
2013-4-19,52.0,37.8,27.9,51.2,31.6,18.2,97,78,64,28.84,28.37,15,7,22,0.05
2013-4-20,34.4,28.5,24.5,22.4,19.8,17.0,88,70,54,29.56,28.84,7,4,12,0.00
2013-4-21,46.9,33.5,21.0,29.7,21.4,16.2,95,65,32,29.70,29.46,4,1,6,0.00
2013-4-22,59.5,46.1,37.4,35.9,32.1,29.3,75,60,38,29.46,29.25,4,2,8,0.00
2013-4-23,57.7,41.7,33.0,47.6,36.0,31.0,94,81,66,29.24,29.00,8,2,11,0.32
2013-4-24,45.7,37.8,33.0,31.5,28.4,22.4,91,71,40,29.11,29.04,6,3,10,0.05
2013-4-25,48.2,40.8,36.8,35.2,31.0,26.4,89,69,48,29.39,29.03,9,4,14,0.01
2013-4-26,63.3,48.4,34.8,44.9,34.5,29.3,83,61,35,29.46,29.27,6,2,11,0.00
2013-4-27,71.7,59.4,48.1,51.2,45.4,36.7,84,62,34,29.35,29.21,8,4,16,0.06
2013-4-28,72.2,55.4,42.1,42.7,39.5,36.9,86,59,29,29.22,28.95,4,0,5,0.00
2013-4-29,58.8,52.4,46.9,53.7,49.0,38.1,96,88,60,29.01,28.97,5,0,7,0.05
2013-4-30,73.8,60.7,51.2,60.6,55.3,49.7,96,84,59,29.02,28.91,5,2,10,0.25
2013-5-1,70.5,61.5,44.1,61.2,52.3,36.3,89,72,52,29.42,29.02,6,3,9,0.00
2013-5-2,59.9,44.9,38.7,46.4,38.1,34.6,92,78,58,29.43,29.32,7,4,9,0.00
2013-5-3,71.3,49.0,36.8,51.6,41.2,34.4,92,76,49,29.36,29.17,4,1,6,0.02
2013-5-4,77.3,59.3,42.2,51.2,44.7,39.5,92,62,32,29.25,29.17,5,1,6,0.00
2013-5-5,76.1,60.8,47.3,44.1,39.3,35.0,71,47,29,29.27,29.16,3,1,6,0.00
2013-5-6,75.1,59.8,43.2,44.5,39.3,33.3,83,50,23,29.25,29.14,4,1,8,0.00
2013-5-7,79.7,65.4,50.0,45.1,38.5,32.7,71,40,23,29.21,29.14,4,1,7,0.00
2013-5-8,78.9,64.4,51.6,50.3,42.8,37.3,73,48,24,29.19,29.11,4,1,5,0.00
2013-5-9,70.2,55.9,43.1,48.8,43.4,40.1,92,65,37,29.17,29.09,4,1,5,0.08
2013-5-10,43.2,40.9,38.7,41.9,38.9,37.1,95,93,89,29.17,29.08,3,1,5,0.68
2013-5-11,46.3,38.6,33.5,44.1,35.9,31.8,96,90,73,29.09,28.86,6,2,11,0.09
2013-5-12,40.1,36.3,33.9,34.2,30.2,26.6,92,79,65,29.22,28.94,7,4,13,0.01
2013-5-13,50.4,40.8,30.8,30.7,26.3,20.7,92,59,33,29.30,29.16,6,2,8,0.00
2013-5-14,63.1,51.6,40.4,46.3,38.8,24.9,83,63,44,29.16,28.72,3,1,5,0.01
2013-5-15,73.3,60.0,47.1,52.1,45.7,40.8,88,62,32,28.92,28.60,8,3,17,0.00
2013-5-16,63.7,55.5,44.7,45.5,41.4,38.3,82,61,42,29.22,28.91,2,1,5,0.00
2013-5-17,61.6,51.6,41.8,48.1,43.3,38.6,90,74,55,29.33,29.21,1,0,2,0.00
2013-5-18,71.2,59.0,51.1,52.3,47.4,43.4,85,67,47,29.32,29.15,1,0,3,0.00
2013-5-19,81.1,66.9,56.0,65.9,55.5,46.4,84,67,55,29.15,28.98,3,0,5,0.00
2013-5-20,81.5,66.8,59.2,70.8,62.1,54.7,94,85,65,29.01,28.85,3,0,3,0.01
2013-5-21,77.5,63.5,55.6,68.4,60.2,54.2,97,89,67,28.91,28.79,4,0,7,0.26
2013-5-22,59.7,55.7,51.6,58.6,54.6,50.5,97,96,94,28.90,28.81,1,0,2,0.22
2013-5-23,51.6,44.7,39.5,50.5,40.4,34.7,96,85,63,29.40,28.90,3,2,7,0.34
2013-5-24,54.4,43.6,35.1,40.5,35.3,32.4,93,74,50,29.56,29.40,3,0,7,0.00
2013-5-25,62.8,48.9,34.5,42.2,36.5,32.1,93,66,35,29.59,29.46,1,0,7,0.00
2013-5-26,66.7,51.6,36.3,42.8,36.5,32.7,90,60,32,29.53,29.37,1,0,3,0.00
2013-5-27,71.5,57.3,43.0,45.7,40.8,34.6,85,57,27,29.39,29.14,1,0,3,0.00
2013-5-28,58.6,55.7,53.5,57.3,50.8,41.9,96,85,54,29.13,28.89,1,0,2,0.14
2013-5-29,70.7,59.2,50.3,64.5,56.9,49.2,97,92,79,29.08,28.90,3,0,10,0.01
2013-5-30,88.5,73.5,57.8,69.5,64.3,56.1,97,76,46,29.07,28.98,4,1,10,0.33
2013-5-31,82.3,70.9,64.5,67.0,64.3,62.6,96,81,52,29.03,28.89,5,1,14,0.05
2013-6-1,78.0,68.1,59.9,67.4,62.9,56.3,96,84,66,28.91,28.79,4,1,10,0.22
2013-6-2,61.1,46.3,39.0,58.4,42.8,35.7,95,88,73,29.17,28.76,4,1,7,0.32
2013-6-3,62.5,49.1,37.7,47.7,40.8,35.7,94,75,47,29.27,29.16,5,1,10,0.00
2013-6-4,60.2,50.3,37.9,46.5,40.5,35.1,92,71,43,29.36,29.27,1,0,2,0.00
2013-6-5,55.0,51.6,46.3,53.2,48.0,38.9,94,88,68,29.34,29.21,0,0,1,0.06
2013-6-6,69.9,57.5,48.6,51.1,46.3,42.0,86,68,45,29.22,29.09,1,0,2,0.00
2013-6-7,70.3,58.7,49.0,50.6,45.8,39.8,88,64,44,29.13,29.05,2,0,5,0.00
2013-6-8,70.1,56.2,46.0,53.0,46.6,39.0,89,72,42,29.20,29.07,2,0,5,0.00
2013-6-9,72.1,60.4,46.2,59.9,52.7,43.0,94,77,63,29.26,29.11,1,0,2,0.00
2013-6-10,69.9,62.9,58.8,65.2,58.1,51.9,95,84,69,29.11,28.95,0,0,1,0.06
2013-6-11,76.7,63.3,56.8,65.3,59.0,55.4,96,87,64,29.05,28.96,4,0,9,0.00
2013-6-12,77.1,63.6,54.1,62.5,56.4,52.7,96,80,43,29.07,28.90,1,0,2,0.03
2013-6-13,66.6,58.7,53.1,58.2,52.4,49.2,90,80,71,29.17,28.89,3,1,5,0.00
2013-6-14,71.8,58.4,48.7,50.4,43.6,29.8,90,62,22,29.28,29.17,2,0,8,0.00
2013-6-15,71.7,60.9,46.1,61.7,52.1,36.8,89,73,60,29.19,28.98,3,0,6,0.01
2013-6-16,79.1,65.4,56.4,64.3,58.2,52.7,96,80,49,29.01,28.89,6,1,10,0.56
2013-6-17,70.6,60.9,53.9,59.1,55.1,51.3,92,82,64,29.16,28.98,2,0,4,0.00
2013-6-18,69.8,58.8,48.8,53.5,48.1,42.2,93,70,40,29.26,29.15,1,0,3,0.00
2013-6-19,71.2,58.4,45.6,51.8,46.9,42.3,94,68,43,29.33,29.25,3,0,6,0.00
2013-6-20,81.4,66.5,52.4,61.7,53.1,43.7,86,65,43,29.31,29.25,3,1,6,0.00
2013-6-21,83.4,69.5,59.3,68.8,61.3,55.4,89,76,58,29.30,29.07,6,1,19,0.00
2013-6-22,74.3,64.1,59.8,65.9,60.3,57.2,94,88,73,29.23,29.10,2,0,3,0.00
2013-6-23,86.4,73.1,61.4,72.3,66.4,59.1,96,81,58,29.16,29.00,5,1,7,0.03
2013-6-24,84.4,75.9,68.1,71.3,67.9,64.3,91,77,62,29.12,29.00,4,2,8,0.00
2013-6-25,78.5,72.0,66.2,67.8,65.2,62.9,89,80,67,29.02,28.96,4,1,7,0.00
2013-6-26,84.3,69.9,61.8,71.2,64.5,59.6,96,84,60,28.98,28.90,2,0,5,0.00
2013-6-27,79.1,68.0,60.6,67.8,62.8,58.3,92,84,63,28.96,28.82,2,0,5,0.01
2013-6-28,76.9,66.1,58.7,66.4,61.3,56.8,94,85,68,28.84,28.74,2,0,5,0.00
2013-6-29,71.4,65.4,60.9,61.8,59.5,54.7,94,82,69,28.97,28.78,1,0,3,0.02
2013-6-30,76.3,65.7,56.0,55.7,52.3,43.8,90,65,33,29.19,28.97,2,0,5,0.00
2013-7-1,79.0,66.6,56.5,61.2,53.3,46.4,80,63,47,29.31,29.19,1,0,2,0.00
2013-7-2,72.8,61.8,51.2,53.6,49.2,44.0,87,65,42,29.31,29.23,1,0,2,0.00
2013-7-3,73.1,65.4,56.4,59.8,55.3,51.7,88,71,54,29.26,29.17,0,0,1,0.00
2013-7-4,77.2,68.6,62.0,65.7,61.1,56.0,92,78,55,29.23,29.16,3,1,6,0.00
2013-7-5,86.1,73.9,63.8,67.7,62.2,58.3,89,69,45,29.22,29.14,4,1,8,0.01
2013-7-6,86.7,75.9,68.5,65.4,61.2,51.6,79,61,44,29.19,29.10,4,2,9,0.00
2013-7-7,87.2,74.8,64.7,69.8,65.1,60.0,91,73,48,29.14,29.06,3,1,8,0.00
2013-7-8,76.0,69.4,66.1,71.6,66.7,64.6,96,91,79,29.13,29.06,3,0,7,0.87
2013-7-9,76.9,69.3,65.2,71.0,66.9,64.0,97,92,81,29.14,28.88,1,0,4,0.03
2013-7-10,73.3,68.3,59.6,69.5,62.2,56.8,94,81,63,29.11,28.86,5,2,9,0.00
2013-7-11,73.5,64.8,58.3,60.6,56.9,51.8,93,77,51,29.25,29.11,1,0,3,0.00
2013-7-12,82.9,66.0,54.7,64.8,56.6,47.6,94,74,32,29.33,29.23,2,0,3,0.00
2013-7-13,83.2,70.8,61.1,66.0,60.7,57.7,93,73,46,29.34,29.25,3,0,7,0.00
2013-7-14,86.1,73.1,61.7,69.2,64.2,58.5,92,75,54,29.40,29.34,3,0,5,0.00
2013-7-15,86.8,76.4,66.1,71.0,66.8,63.1,90,73,55,29.45,29.38,2,0,5,0.00
2013-7-16,91.8,78.8,67.0,76.3,69.3,62.1,88,74,56,29.43,29.33,3,1,14,0.00
2013-7-17,92.4,82.5,76.8,75.2,73.0,70.6,87,74,51,29.38,29.25,3,1,9,0.00
2013-7-18,91.1,82.7,75.8,76.1,72.4,71.1,87,72,54,29.26,28.96,5,2,14,0.00
2013-7-19,87.8,80.0,68.3,73.4,70.1,62.2,87,72,60,28.96,28.81,7,3,17,0.09
2013-7-20,71.8,65.7,54.8,62.3,55.0,48.2,87,70,47,29.16,28.91,2,0,5,0.00
2013-7-21,72.6,61.6,51.1,59.8,52.8,48.3,94,74,51,29.20,29.08,1,0,3,0.02
2013-7-22,85.9,72.1,61.1,71.1,63.7,57.5,93,76,53,29.08,28.81,3,1,10,0.00
2013-7-23,75.7,63.8,56.3,66.5,55.2,47.1,84,74,64,29.10,28.80,4,1,7,0.01
2013-7-24,70.9,60.3,49.8,54.1,49.5,45.5,88,69,49,29.22,29.10,2,0,5,0.00
2013-7-25,78.8,64.9,51.2,58.5,52.6,47.2,92,67,45,29.22,29.12,4,1,6,0.00
2013-7-26,79.0,65.1,58.5,64.7,59.0,48.8,95,81,50,29.13,28.98,5,1,13,0.57
2013-7-27,60.8,57.2,54.9,59.4,54.3,49.9,95,90,80,29.01,28.94,2,0,4,0.01
2013-7-28,62.5,56.7,54.2,54.5,52.6,50.5,95,87,68,29.04,28.90,4,1,8,0.13
2013-7-29,68.1,59.4,54.5,58.7,55.4,53.1,96,87,68,29.31,29.04,3,1,7,0.10
2013-7-30,72.4,62.3,53.8,63.3,57.1,51.8,95,84,62,29.35,29.24,2,0,6,0.01
2013-7-31,76.2,67.4,60.3,66.8,61.1,55.9,91,81,64,29.25,29.03,3,1,9,0.00
2013-8-1,73.7,66.4,60.9,60.9,58.4,55.6,95,77,55,29.05,29.01,5,1,9,0.00
2013-8-2,73.5,64.9,58.6,63.1,58.7,55.6,93,81,60,29.08,28.96,6,1,11,0.01
2013-8-3,70.3,62.6,55.7,57.4,55.1,52.8,92,78,61,29.25,29.07,3,0,4,0.01
2013-8-4,70.8,61.6,52.7,56.4,51.9,47.0,94,72,46,29.35,29.25,2,0,3,0.00
2013-8-5,66.2,58.7,49.3,58.8,52.2,46.0,91,80,61,29.26,29.04,1,0,3,0.01
2013-8-6,77.7,68.7,59.5,67.0,62.2,56.2,94,80,67,29.04,28.94,4,1,8,0.00
2013-8-7,71.8,66.6,58.6,67.2,62.1,55.0,96,86,72,29.14,28.80,6,1,10,0.71
2013-8-8,73.6,61.8,51.9,58.7,53.8,49.5,94,77,48,29.20,29.13,4,0,6,0.00
2013-8-9,74.2,64.6,54.3,62.4,55.4,50.4,92,73,54,29.19,29.07,5,1,10,0.00
2013-8-10,72.6,61.9,50.7,58.1,53.4,47.9,92,75,55,29.29,29.19,4,1,8,0.00
2013-8-11,76.4,65.2,57.6,61.9,57.7,53.2,93,78,52,29.25,29.17,3,1,7,0.00
2013-8-12,75.5,64.2,56.5,64.0,59.0,51.7,96,84,61,29.18,29.03,4,1,11,0.03
2013-8-13,63.9,57.3,52.9,51.8,48.1,45.6,84,72,55,29.27,29.11,2,0,5,0.00
2013-8-14,67.7,58.3,50.8,53.9,49.9,47.4,94,75,52,29.33,29.25,4,1,6,0.00
2013-8-15,75.1,63.5,54.5,56.5,51.9,47.1,89,68,39,29.27,29.21,3,1,7,0.00
2013-8-16,79.2,65.4,52.9,60.9,55.6,49.9,95,73,42,29.33,29.25,3,0,6,0.00
2013-8-17,81.9,67.4,55.1,58.7,55.2,52.1,93,68,39,29.40,29.32,3,1,9,0.00
2013-8-18,81.3,68.6,58.5,59.3,55.5,52.1,82,65,45,29.36,29.22,4,1,6,0.00
2013-8-19,82.3,70.8,61.7,62.8,58.8,54.1,85,67,46,29.23,29.13,5,2,10,0.00
2013-8-20,86.6,75.5,67.0,65.2,63.1,60.7,86,67,46,29.20,29.13,5,2,13,0.00
2013-8-21,89.3,78.2,67.2,70.8,66.3,62.6,93,68,50,29.16,29.03,7,3,17,0.22
2013-8-22,78.0,69.4,60.0,66.7,61.4,54.4,95,78,46,29.27,29.06,2,0,4,0.05
2013-8-23,79.2,65.0,55.2,61.9,57.2,52.8,95,78,47,29.36,29.27,2,0,3,0.00
2013-8-24,81.0,68.6,58.7,61.3,57.6,54.0,89,70,43,29.42,29.33,3,0,5,0.00
2013-8-25,89.9,76.7,63.1,70.7,63.6,56.6,85,65,52,29.34,29.14,6,3,18,0.00
2013-8-26,86.8,77.4,69.0,70.1,67.8,65.6,94,74,52,29.22,29.09,5,2,14,0.08
2013-8-27,70.5,69.2,67.1,69.2,67.6,64.7,96,95,90,29.13,28.99,2,0,4,0.73
2013-8-28,83.9,71.6,66.3,73.9,67.9,63.4,97,89,68,29.19,29.00,1,0,2,0.00
2013-8-29,85.1,73.5,63.5,73.4,67.7,61.7,96,83,62,29.23,29.11,2,0,5,0.00
2013-8-30,77.8,71.7,68.1,71.9,67.2,64.3,93,86,72,29.11,28.92,4,1,14,0.20
2013-8-31,77.9,68.7,63.1,67.7,64.0,61.5,96,86,62,29.04,28.96,2,0,3,0.00
2013-9-1,76.0,66.7,61.5,67.7,63.7,58.5,96,91,72,29.01,28.82,2,0,5,0.51
2013-9-2,61.4,57.3,55.8,58.7,53.4,50.7,93,87,78,29.10,28.94,2,1,6,0.05
2013-9-3,69.9,61.8,54.0,58.7,54.5,51.6,94,77,62,29.18,29.09,5,1,11,0.00
2013-9-4,67.0,62.6,51.7,61.1,56.1,46.4,92,80,55,29.31,29.07,2,1,7,0.00
2013-9-5,64.4,54.9,48.8,51.1,46.9,43.4,91,75,56,29.46,29.30,1,0,3,0.00
2013-9-6,77.4,63.4,48.6,59.6,51.9,44.0,89,68,45,29.38,29.10,3,1,7,0.00
2013-9-7,75.5,70.9,64.8,70.6,65.6,57.8,94,83,66,29.16,29.02,4,1,10,0.15
2013-9-8,70.1,62.7,58.0,62.6,56.8,53.5,92,81,59,29.29,29.15,1,0,3,0.00
2013-9-9,74.6,64.8,56.6,71.1,60.6,51.3,95,87,74,29.18,28.87,2,0,7,0.01
2013-9-10,88.8,80.8,69.3,73.3,69.9,65.5,90,70,56,29.13,28.87,5,2,11,0.00
2013-9-11,77.5,69.7,64.1,69.0,65.1,62.6,95,86,68,29.13,29.04,4,1,9,0.84
2013-9-12,68.3,60.5,50.8,63.6,54.8,46.1,95,82,67,29.22,29.06,2,1,6,0.01
2013-9-13,58.3,50.9,43.8,48.5,43.7,40.5,93,77,60,29.33,29.21,2,0,4,0.06
2013-9-14,66.8,53.8,42.1,52.7,46.3,39.9,93,77,54,29.29,29.15,4,1,11,0.00
2013-9-15,60.4,56.6,50.0,56.6,53.3,46.0,95,89,78,29.35,29.12,3,1,9,0.31
2013-9-16,57.2,49.4,43.9,46.9,42.9,39.5,92,79,59,29.55,29.35,1,0,3,0.01
2013-9-17,65.0,52.4,44.0,50.5,45.9,42.1,94,80,51,29.54,29.32,1,0,3,0.00
2013-9-18,71.8,59.8,48.3,61.5,54.5,45.5,93,83,67,29.32,29.08,2,0,3,0.00
2013-9-19,76.6,67.6,62.0,70.3,64.3,59.5,96,89,79,29.10,28.90,3,0,4,0.34
2013-9-20,70.0,67.2,59.9,66.3,64.1,55.4,95,90,84,28.91,28.82,4,1,10,0.04
2013-9-21,59.9,54.2,47.9,55.7,49.3,42.7,93,84,74,29.07,28.87,2,0,5,0.04
2013-9-22,51.6,49.0,47.0,44.9,42.3,40.0,88,78,69,29.25,29.07,0,0,1,0.00
2013-9-23,60.4,50.0,41.5,49.7,44.1,39.2,94,81,61,29.34,29.25,1,0,3,0.00
2013-9-24,64.8,52.7,42.4,53.1,47.7,40.0,96,84,61,29.30,29.16,1,0,3,0.00
2013-9-25,67.1,54.9,46.6,54.9,50.0,44.6,95,84,60,29.20,29.15,0,0,2,0.00
2013-9-26,71.5,56.0,46.3,56.2,49.7,39.6,96,82,37,29.27,29.17,2,0,3,0.00
2013-9-27,75.8,59.5,49.2,59.2,53.0,46.7,94,81,51,29.35,29.27,1,0,3,0.00
2013-9-28,75.6,63.9,54.4,60.9,56.2,52.1,93,77,55,29.29,28.98,2,1,6,0.00
2013-9-29,71.3,58.0,47.2,61.9,51.5,45.0,95,80,52,29.18,28.98,5,0,12,0.20
2013-9-30,69.2,56.2,46.1,56.2,49.9,42.5,95,81,49,29.16,29.00,2,0,7,0.00
2013-10-1,79.1,65.6,55.0,64.2,58.0,50.0,87,78,51,29.03,28.88,6,2,16,0.00
2013-10-2,70.4,60.8,53.0,56.4,47.8,39.1,86,65,33,29.23,29.01,3,1,7,0.00
2013-10-3,60.5,56.7,50.8,59.4,53.8,45.8,96,90,77,29.20,29.06,0,0,0,1.38
2013-10-4,60.9,58.6,55.9,59.8,57.6,54.8,97,96,96,29.23,29.05,0,0,0,0.85
2013-10-5,61.1,57.9,55.7,59.7,56.8,54.7,97,96,93,29.23,28.99,0,0,0,0.92
2013-10-6,63.6,57.7,50.1,62.7,56.2,47.9,97,95,87,29.00,28.78,0,0,0,0.39
2013-10-7,58.7,52.3,45.3,51.9,47.9,43.1,96,85,66,29.21,28.73,0,0,1,0.25
2013-10-8,70.2,54.7,42.8,53.5,47.7,40.9,95,80,45,29.33,29.21,3,0,7,0.00
2013-10-9,74.0,60.1,52.7,57.3,52.0,48.9,90,76,52,29.38,29.29,4,1,6,0.00
2013-10-10,69.3,55.6,47.1,55.3,49.9,44.6,95,83,52,29.36,29.25,1,0,3,0.00
2013-10-11,67.0,55.1,45.1,53.3,48.7,43.2,96,81,53,29.29,29.18,1,0,2,0.00
2013-10-12,75.9,61.2,51.6,60.2,53.1,46.5,92,76,52,29.19,29.07,4,1,9,0.04
2013-10-13,59.1,53.6,48.0,50.6,46.9,44.0,88,78,70,29.53,29.19,4,1,7,0.00
2013-10-14,57.7,48.0,40.0,45.3,41.7,37.9,96,80,54,29.59,29.42,1,0,2,0.00
2013-10-15,57.6,52.0,45.6,56.5,48.7,42.0,96,89,80,29.42,28.86,1,0,7,0.34
2013-10-16,57.2,51.3,47.9,55.8,48.7,42.9,96,91,82,29.01,28.83,5,1,12,0.16
2013-10-17,49.8,47.0,40.8,43.3,41.4,37.7,89,81,71,29.01,28.89,2,0,4,0.00
2013-10-18,54.9,46.8,40.0,48.4,43.4,37.3,95,88,73,28.95,28.89,5,1,7,0.51
2013-10-19,50.6,44.2,39.2,44.7,40.3,35.9,96,87,57,28.95,28.84,4,1,9,0.49
2013-10-20,50.0,43.9,38.6,44.3,39.5,35.9,96,85,59,28.97,28.80,5,1,9,0.44
2013-10-21,48.3,43.0,36.4,46.2,38.6,27.2,96,85,64,28.93,28.78,7,3,13,0.34
2013-10-22,44.8,39.0,33.0,39.0,34.8,28.2,94,85,70,29.02,28.84,8,3,12,0.44
2013-10-23,43.6,37.1,33.8,35.2,32.5,29.4,95,84,62,29.02,28.97,5,1,8,0.15
2013-10-24,46.3,39.9,35.7,35.8,33.6,29.9,94,79,61,29.28,29.01,4,2,8,0.28
2013-10-25,44.0,40.2,36.1,39.0,33.2,29.0,94,77,58,29.36,28.93,8,2,17,0.09
2013-10-26,50.5,44.3,40.4,41.9,36.7,32.0,90,75,67,29.10,28.75,8,4,14,0.07
2013-10-27,47.7,43.1,39.8,39.7,33.8,29.5,83,70,59,29.12,28.99,6,2,13,0.00
2013-10-28,45.7,37.8,30.9,39.5,30.4,26.4,87,75,62,29.59,29.12,3,1,5,0.00
2013-10-29,40.9,35.4,29.0,35.3,29.7,26.1,93,80,59,29.60,29.34,1,0,6,0.00
2013-10-30,55.7,45.6,39.2,49.0,41.2,35.1,92,85,68,29.34,28.97,1,0,4,0.04
2013-10-31,58.1,54.0,50.5,57.2,52.8,48.6,99,96,93,28.97,28.21,3,0,4,0.18
2013-11-1,53.2,47.0,41.5,52.1,45.1,39.9,96,93,88,28.82,28.17,6,2,12,0.24
2013-11-2,41.5,39.4,36.1,39.9,36.3,32.9,95,89,76,29.28,28.82,2,0,5,0.07
2013-11-3,44.1,39.2,35.1,35.1,33.1,31.0,91,79,66,29.49,29.28,2,1,5,0.00
2013-11-4,48.9,43.2,37.1,37.2,34.2,31.5,87,71,54,29.50,29.27,4,2,10,0.00
2013-11-5,54.9,50.7,47.4,48.8,46.0,37.1,94,84,66,29.39,29.13,4,1,7,0.06
2013-11-6,53.3,45.8,38.0,52.2,43.3,31.1,96,91,76,29.13,28.80,7,3,17,0.77
2013-11-7,38.7,36.9,33.6,32.2,30.4,28.4,92,77,71,29.21,29.13,7,3,11,0.00
2013-11-8,40.9,37.6,33.4,32.2,29.1,26.4,89,71,57,29.34,29.17,6,2,12,0.00
2013-11-9,46.4,41.9,37.5,43.5,37.5,32.2,93,85,71,29.17,28.78,9,5,15,0.17
2013-11-10,42.0,40.1,37.2,35.9,33.0,29.6,89,76,65,29.33,28.95,9,5,16,0.00
2013-11-11,41.5,32.1,26.6,36.9,26.5,18.3,94,80,62,29.50,29.11,9,5,17,0.38
2013-11-12,29.8,28.3,26.1,25.2,20.0,17.9,88,71,63,29.67,29.50,7,4,11,0.00
2013-11-13,40.6,34.5,24.2,30.0,25.0,18.3,85,69,58,29.56,29.05,12,5,25,0.00
2013-11-14,44.8,41.4,38.0,37.5,32.3,28.0,83,70,62,29.07,28.95,11,5,13,0.01
2013-11-15,52.9,44.3,39.1,40.5,37.4,34.7,87,77,61,29.07,28.98,6,2,11,0.00
2013-11-16,52.9,45.4,36.0,51.2,42.4,33.5,94,89,84,29.09,28.67,5,2,9,0.17
2013-11-17,57.0,53.2,43.1,55.9,51.7,39.2,96,95,86,28.68,28.19,10,3,16,2.81
2013-11-18,42.9,36.3,31.9,39.0,28.8,22.4,89,74,65,29.26,28.46,11,7,18,0.01
2013-11-19,35.9,32.8,30.6,28.2,25.0,21.8,82,73,64,29.48,29.26,4,1,8,0.00
2013-11-20,43.3,37.4,33.1,31.6,28.4,26.4,81,70,53,29.45,29.30,5,2,7,0.00
2013-11-21,41.7,39.6,36.9,39.6,36.3,30.3,95,88,70,29.32,29.27,2,0,4,0.04
2013-11-22,40.1,31.6,28.5,38.5,27.2,20.2,94,84,62,29.49,29.31,7,4,11,0.06
2013-11-23,31.4,20.7,17.2,24.4,15.2,10.4,91,79,63,29.65,29.37,8,6,13,0.00
2013-11-24,24.5,19.7,17.0,18.0,13.5,11.1,88,77,70,29.66,29.25,6,3,11,0.00
2013-11-25,35.8,31.0,24.9,32.0,26.4,18.4,93,83,66,29.26,28.99,10,5,21,0.00
2013-11-26,36.5,30.1,21.3,32.0,26.2,15.5,93,85,77,29.20,29.04,5,3,10,0.04
2013-11-27,24.4,22.6,19.5,19.3,16.0,12.3,88,76,60,29.30,29.14,7,3,10,0.00
2013-11-28,24.8,22.5,19.5,22.5,19.8,16.3,92,89,86,29.54,29.30,3,1,5,0.00
2013-11-29,30.8,25.7,21.1,26.0,22.5,19.1,93,88,77,29.71,29.54,3,1,6,0.00
2013-11-30,38.0,33.0,26.1,34.3,29.1,21.8,91,85,80,29.56,29.14,5,2,8,0.02
2013-12-1,35.9,34.0,32.5,32.8,31.1,29.6,96,89,83,29.23,29.13,1,0,2,0.00
2013-12-2,35.6,32.8,31.7,31.3,29.4,27.6,95,87,80,29.13,29.01,1,0,2,0.07
2013-12-3,33.4,30.5,29.1,29.9,26.0,22.5,95,84,64,29.08,29.00,3,2,6,0.00
2013-12-4,44.9,36.0,31.2,43.8,34.6,29.9,96,95,93,29.02,28.57,4,1,5,0.38
2013-12-5,48.1,31.3,20.0,46.3,26.1,14.1,96,81,74,29.23,28.56,14,9,34,0.01
2013-12-6,20.8,19.6,18.5,15.0,13.3,11.6,82,76,67,29.48,29.23,7,4,11,0.00
2013-12-7,19.7,17.5,16.5,13.5,10.1,7.2,80,72,66,29.66,29.48,7,4,13,0.00
2013-12-8,22.2,18.0,15.8,20.2,13.2,8.4,92,81,70,29.64,29.13,4,2,7,0.00
2013-12-9,27.6,21.4,11.1,24.5,17.8,6.5,93,86,75,29.14,28.91,12,5,22,0.00
2013-12-10,17.3,13.4,9.6,13.5,9.5,6.3,90,84,76,29.20,28.91,8,4,15,0.00
2013-12-11,14.9,13.0,11.8,10.2,7.1,4.2,85,77,68,29.46,29.20,8,5,13,0.00
2013-12-12,20.0,14.8,9.7,14.0,10.4,4.8,89,82,71,29.45,29.18,8,5,16,0.00
2013-12-13,20.1,15.7,10.6,13.9,9.0,3.6,86,75,67,29.49,29.18,6,2,10,0.00
2013-12-14,20.3,16.4,9.6,18.9,12.7,3.8,98,85,75,29.49,29.01,4,2,5,0.00
2013-12-15,21.8,19.8,15.9,19.8,15.8,10.3,93,85,75,29.10,28.86,7,3,13,0.00
2013-12-16,19.8,16.0,13.0,16.7,11.9,9.1,90,84,75,29.25,29.04,4,2,8,0.00
2013-12-17,28.1,22.2,16.4,23.9,19.2,13.4,92,88,78,29.04,28.91,4,2,8,0.00
2013-12-18,27.8,24.0,22.3,22.7,18.5,16.3,84,79,75,29.14,28.85,5,2,9,0.00
2013-12-19,30.7,27.1,22.1,27.3,23.2,19.1,93,85,81,29.20,28.84,4,2,7,0.00
2013-12-20,24.6,23.2,21.2,22.3,20.9,19.0,92,91,86,29.13,28.95,1,0,5,0.00
2013-12-21,28.9,26.4,24.3,25.6,23.9,22.3,100,90,85,29.08,28.94,3,0,7,0.00
2013-12-22,26.1,21.9,18.2,23.1,19.4,16.0,92,90,87,29.17,28.89,3,1,7,0.00
2013-12-23,18.9,17.0,13.8,16.0,14.1,9.0,92,88,81,29.44,29.17,2,0,4,0.00
2013-12-24,16.4,13.3,7.9,13.2,9.6,4.8,89,85,79,29.58,29.43,2,0,4,0.00
2013-12-25,22.4,19.8,15.3,20.1,17.3,12.4,92,90,86,29.49,29.13,5,2,10,0.00
2013-12-26,23.1,21.4,18.9,21.1,17.9,15.1,93,86,77,29.32,29.10,7,2,11,0.00
2013-12-27,37.0,26.0,18.2,32.4,22.3,14.4,95,86,81,29.35,29.00,8,2,16,0.00
2013-12-28,42.7,36.4,32.6,35.9,32.3,29.6,91,85,76,29.11,28.86,7,2,9,0.03
2013-12-29,38.5,23.4,13.0,34.8,19.7,7.9,94,86,73,29.18,28.82,6,4,9,0.00
2013-12-30,13.2,12.2,10.4,10.3,7.5,6.2,92,81,74,29.35,29.18,5,2,9,0.00
2013-12-31,10.8,10.0,9.0,7.4,4.6,2.2,87,79,72,29.43,29.13,7,4,13,0.00
2014-1-1,12.1,10.7,9.1,7.9,5.2,3.1,86,78,72,29.53,29.42,2,1,4,0.00
2014-1-2,12.3,9.7,8.1,7.7,4.1,1.2,87,78,72,29.48,29.38,4,1,7,0.00